Station Historical Data
Daily Summary for May 4, 2012 Units:  Metric    English   Both
« Previous Day
Next Day »
Daily Weekly Monthly Yearly Custom
  High: Low: Average:
Temperature: 28.4 °C 18.6 °C 22.7 °C
Dew Point: 22.5 °C 17.6 °C 19.9 °C
Humidity: 94% 63% 85%
Wind Speed: 11.3km/h 0km/h 5.3km/h
Wind Gust: 16.1km/h - -
Wind- - South
Pressure: 1017.8 hPa 1013.1 hPa -
Precipitation: 0.25 mm    
Historical Graphs
 
 
Tabular Data for May 4, 2012
Time Temperature Dew Point Pressure Wind Wind Speed Wind Gust Humidity Rainfall Rate (Hourly) Conditions
00:00 19.3 °C 18.2 °C 1015.8 hPa SE 3.2 km/h 8 km/h 93% 0 mm
00:01 19.3 °C 18.2 °C 1015.8 hPa SSE 4.8 km/h 6.4 km/h 93% 0 mm
00:06 19.3 °C 18.2 °C 1015.8 hPa SSE 6.4 km/h 8 km/h 93% 0 mm
00:09 19.3 °C 18.1 °C 1015.8 hPa SE 4.8 km/h 8 km/h 93% 0 mm
00:15 19.3 °C 18.1 °C 1015.8 hPa SE 6.4 km/h 8 km/h 93% 0 mm
00:20 19.3 °C 18.1 °C 1015.8 hPa SSE 6.4 km/h 6.4 km/h 93% 0 mm
00:25 19.2 °C 18.1 °C 1015.8 hPa SE 6.4 km/h 6.4 km/h 93% 0 mm
00:30 19.2 °C 18.1 °C 1016.1 hPa SE 3.2 km/h 6.4 km/h 93% 0 mm
00:35 19.2 °C 18.1 °C 1015.8 hPa ESE 9.7 km/h 9.7 km/h 93% 0 mm
00:40 19.2 °C 18.2 °C 1015.8 hPa SE 8 km/h 8 km/h 94% 0 mm
00:45 19.2 °C 18.2 °C 1015.8 hPa SSE 8 km/h 9.7 km/h 94% 0 mm
00:50 19.1 °C 18.1 °C 1015.8 hPa ESE 8 km/h 8 km/h 94% 0 mm
00:55 19.1 °C 18.1 °C 1015.5 hPa SE 8 km/h 8 km/h 94% 0 mm
01:00 19.1 °C 18.1 °C 1015.5 hPa SE 8 km/h 11.3 km/h 94% 0 mm
01:05 19.1 °C 18.1 °C 1015.5 hPa SE 6.4 km/h 8 km/h 94% 0 mm
01:10 19.1 °C 18.1 °C 1015.5 hPa SE 3.2 km/h 8 km/h 94% 0 mm
01:15 19.1 °C 18.1 °C 1015.5 hPa ESE 4.8 km/h 8 km/h 94% 0 mm
01:20 19.1 °C 18.1 °C 1015.5 hPa SE 6.4 km/h 8 km/h 94% 0 mm
01:25 19.1 °C 18.1 °C 1015.5 hPa SE 6.4 km/h 9.7 km/h 94% 0 mm
01:30 19.2 °C 18.2 °C 1015.5 hPa SE 4.8 km/h 9.7 km/h 94% 0 mm
01:35 19.2 °C 18.2 °C 1015.5 hPa SE 6.4 km/h 12.9 km/h 94% 0 mm
01:40 19.3 °C 18.3 °C 1015.5 hPa SE 9.7 km/h 14.5 km/h 94% 0 mm
01:45 19.3 °C 18.3 °C 1015.5 hPa SE 8 km/h 14.5 km/h 94% 0 mm
01:50 19.3 °C 18.3 °C 1015.5 hPa South 8 km/h 11.3 km/h 94% 0 mm
01:55 19.4 °C 18.4 °C 1015.5 hPa SSE 8 km/h 11.3 km/h 94% 0 mm
02:00 19.4 °C 18.4 °C 1015.5 hPa SSW 6.4 km/h 12.9 km/h 94% 0 mm
02:05 19.4 °C 18.4 °C 1015.5 hPa SSE 8 km/h 12.9 km/h 94% 0 mm
02:10 19.4 °C 18.4 °C 1015.8 hPa ESE 4.8 km/h 9.7 km/h 94% 0 mm
02:15 19.4 °C 18.4 °C 1015.5 hPa SE 6.4 km/h 12.9 km/h 94% 0 mm
02:20 19.4 °C 18.4 °C 1015.5 hPa SE 6.4 km/h 9.7 km/h 94% 0 mm
02:25 19.4 °C 18.4 °C 1015.5 hPa SSW 8 km/h 11.3 km/h 94% 0 mm
02:30 19.4 °C 18.4 °C 1015.5 hPa SSE 8 km/h 9.7 km/h 94% 0 mm
02:35 19.4 °C 18.4 °C 1015.5 hPa SSE 11.3 km/h 14.5 km/h 94% 0 mm
02:41 19.3 °C 18.3 °C 1015.5 hPa SSE 11.3 km/h 11.3 km/h 94% 0 mm
02:46 19.3 °C 18.3 °C 1015.1 hPa South 4.8 km/h 9.7 km/h 94% 0 mm
02:51 19.3 °C 18.3 °C 1015.1 hPa SE 4.8 km/h 11.3 km/h 94% 0 mm
02:56 19.3 °C 18.3 °C 1015.1 hPa SE 9.7 km/h 9.7 km/h 94% 0 mm
03:01 19.3 °C 18.3 °C 1015.1 hPa SSE 6.4 km/h 11.3 km/h 94% 0 mm
03:06 19.3 °C 18.3 °C 1015.1 hPa SE 4.8 km/h 11.3 km/h 94% 0 mm
03:11 19.2 °C 18.2 °C 1015.1 hPa South 9.7 km/h 14.5 km/h 94% 0 mm
03:16 19.2 °C 18.2 °C 1015.1 hPa SE 9.7 km/h 12.9 km/h 94% 0 mm
03:21 19.2 °C 18.2 °C 1015.1 hPa SE 11.3 km/h 11.3 km/h 94% 0 mm
03:26 19.2 °C 18.2 °C 1015.1 hPa SSE 3.2 km/h 9.7 km/h 94% 0 mm
03:31 19.2 °C 18.2 °C 1015.1 hPa South 4.8 km/h 11.3 km/h 94% 0 mm
03:36 19.1 °C 18.1 °C 1015.1 hPa SW 6.4 km/h 8 km/h 94% 0 mm
03:41 19.1 °C 18.1 °C 1015.1 hPa SSE 4.8 km/h 6.4 km/h 94% 0 mm
03:46 19.1 °C 18.1 °C 1015.1 hPa SE 3.2 km/h 9.7 km/h 94% 0 mm
03:51 19.1 °C 18.1 °C 1015.1 hPa SE 4.8 km/h 8 km/h 94% 0 mm
03:56 19 °C 18 °C 1015.1 hPa SE 4.8 km/h 8 km/h 94% 0 mm
04:01 18.9 °C 17.9 °C 1015.1 hPa SE 8 km/h 9.7 km/h 94% 0 mm
04:06 18.9 °C 17.9 °C 1015.1 hPa SE 4.8 km/h 8 km/h 94% 0 mm
04:11 19 °C 18 °C 1015.1 hPa SSE 1.6 km/h 8 km/h 94% 0 mm
04:16 19 °C 18 °C 1015.5 hPa SSE 3.2 km/h 3.2 km/h 94% 0 mm
04:21 19 °C 18 °C 1015.5 hPa SE 4.8 km/h 6.4 km/h 94% 0 mm
04:27 18.9 °C 17.9 °C 1015.5 hPa SE 4.8 km/h 6.4 km/h 94% 0 mm
04:32 18.9 °C 17.9 °C 1015.5 hPa ESE 3.2 km/h 6.4 km/h 94% 0 mm
04:37 18.9 °C 17.9 °C 1015.5 hPa SE 4.8 km/h 6.4 km/h 94% 0 mm
04:42 18.9 °C 17.9 °C 1015.5 hPa SE 6.4 km/h 6.4 km/h 94% 0 mm
04:47 18.8 °C 17.8 °C 1015.8 hPa SE 4.8 km/h 8 km/h 94% 0 mm
04:52 18.8 °C 17.8 °C 1015.8 hPa ESE 3.2 km/h 4.8 km/h 94% 0 mm
04:57 18.8 °C 17.8 °C 1015.8 hPa SE 3.2 km/h 6.4 km/h 94% 0 mm
05:02 18.8 °C 17.8 °C 1015.8 hPa SE 4.8 km/h 8 km/h 94% 0 mm
05:07 18.7 °C 17.7 °C 1015.8 hPa SE 3.2 km/h 4.8 km/h 94% 0 mm
05:12 18.6 °C 17.6 °C 1015.8 hPa ESE 1.6 km/h 3.2 km/h 94% 0 mm
05:17 18.6 °C 17.6 °C 1015.8 hPa ESE 1.6 km/h 4.8 km/h 94% 0 mm
05:22 18.6 °C 17.6 °C 1015.8 hPa ESE 1.6 km/h 3.2 km/h 94% 0 mm
05:27 18.6 °C 17.6 °C 1015.8 hPa ESE 3.2 km/h 4.8 km/h 94% 0 mm
05:32 18.6 °C 17.6 °C 1015.8 hPa ESE 1.6 km/h 3.2 km/h 94% 0 mm
05:37 18.6 °C 17.6 °C 1015.8 hPa ESE 3.2 km/h 4.8 km/h 94% 0 mm
05:42 18.7 °C 17.7 °C 1015.8 hPa SE 3.2 km/h 4.8 km/h 94% 0 mm
05:47 18.7 °C 17.7 °C 1015.8 hPa SE 6.4 km/h 6.4 km/h 94% 0 mm
05:52 18.7 °C 17.7 °C 1015.8 hPa ESE 6.4 km/h 8 km/h 94% 0 mm
05:57 18.8 °C 17.8 °C 1015.8 hPa ESE 4.8 km/h 8 km/h 94% 0 mm
06:02 18.8 °C 17.8 °C 1015.8 hPa SE 4.8 km/h 6.4 km/h 94% 0 mm
06:07 18.8 °C 17.8 °C 1015.8 hPa ESE 6.4 km/h 6.4 km/h 94% 0 mm
06:12 18.8 °C 17.8 °C 1015.5 hPa SE 4.8 km/h 9.7 km/h 94% 0 mm
06:17 18.8 °C 17.8 °C 1015.8 hPa ESE 6.4 km/h 8 km/h 94% 0 mm
06:22 18.9 °C 17.9 °C 1015.8 hPa SSE 6.4 km/h 8 km/h 94% 0 mm
06:27 18.8 °C 17.8 °C 1016.1 hPa SE 4.8 km/h 6.4 km/h 94% 0 mm
06:32 18.8 °C 17.8 °C 1016.1 hPa SE 3.2 km/h 6.4 km/h 94% 0 mm
06:37 18.8 °C 17.8 °C 1016.5 hPa SE 3.2 km/h 4.8 km/h 94% 0 mm
06:43 18.8 °C 17.8 °C 1016.5 hPa ESE 4.8 km/h 6.4 km/h 94% 0 mm
06:48 18.9 °C 17.9 °C 1016.5 hPa ESE 3.2 km/h 6.4 km/h 94% 0 mm
06:53 18.9 °C 17.9 °C 1016.5 hPa ESE 3.2 km/h 4.8 km/h 94% 0 mm
06:58 18.9 °C 17.9 °C 1016.8 hPa SE 4.8 km/h 4.8 km/h 94% 0 mm
07:03 18.9 °C 17.9 °C 1016.8 hPa ESE 3.2 km/h 4.8 km/h 94% 0 mm
07:08 18.9 °C 17.9 °C 1016.8 hPa SE 4.8 km/h 4.8 km/h 94% 0 mm
07:13 18.9 °C 17.9 °C 1016.8 hPa ESE 3.2 km/h 4.8 km/h 94% 0 mm
07:18 18.9 °C 17.9 °C 1016.8 hPa SE 3.2 km/h 4.8 km/h 94% 0 mm
07:23 18.9 °C 17.9 °C 1017.2 hPa East 3.2 km/h 4.8 km/h 94% 0 mm
07:28 19 °C 18 °C 1017.2 hPa ESE 3.2 km/h 3.2 km/h 94% 0 mm
07:33 19 °C 18 °C 1017.2 hPa SE 4.8 km/h 4.8 km/h 94% 0 mm
07:38 19.1 °C 18.1 °C 1017.2 hPa SE 3.2 km/h 6.4 km/h 94% 0 mm
07:43 19.1 °C 18.1 °C 1017.2 hPa ESE 6.4 km/h 6.4 km/h 94% 0 mm
07:48 19.1 °C 18.1 °C 1017.2 hPa SE 4.8 km/h 4.8 km/h 94% 0 mm
07:53 19.1 °C 18.1 °C 1017.2 hPa SE 4.8 km/h 4.8 km/h 94% 0 mm
07:58 19.2 °C 18.2 °C 1017.2 hPa SE 4.8 km/h 4.8 km/h 94% 0 mm
08:03 19.2 °C 18.2 °C 1017.2 hPa SE 4.8 km/h 8 km/h 94% 0 mm
08:08 19.3 °C 18.3 °C 1017.2 hPa SE 8 km/h 8 km/h 94% 0 mm
08:13 19.4 °C 18.4 °C 1017.2 hPa SSW 3.2 km/h 8 km/h 94% 0 mm
08:18 19.5 °C 18.5 °C 1016.8 hPa SSE 6.4 km/h 9.7 km/h 94% 0 mm
08:23 19.6 °C 18.6 °C 1017.2 hPa SE 8 km/h 11.3 km/h 94% 0 mm
08:28 19.6 °C 18.6 °C 1016.8 hPa SSE 6.4 km/h 11.3 km/h 94% 0 mm
08:33 19.7 °C 18.7 °C 1016.8 hPa SSE 8 km/h 11.3 km/h 94% 0 mm
08:38 19.8 °C 18.8 °C 1016.8 hPa SSE 6.4 km/h 11.3 km/h 94% 0 mm
08:43 19.9 °C 18.9 °C 1016.8 hPa South 4.8 km/h 12.9 km/h 94% 0 mm
08:48 19.9 °C 18.9 °C 1016.8 hPa SSE 9.7 km/h 14.5 km/h 94% 0 mm
08:54 20.1 °C 18.9 °C 1016.8 hPa SSW 8 km/h 14.5 km/h 93% 0 mm
08:59 20.2 °C 19.1 °C 1016.8 hPa South 11.3 km/h 12.9 km/h 93% 0 mm
09:04 20.3 °C 19.1 °C 1016.8 hPa SSW 8 km/h 12.9 km/h 93% 0 mm
09:09 20.3 °C 19.2 °C 1016.8 hPa South 3.2 km/h 12.9 km/h 93% 0 mm
09:14 20.4 °C 19.2 °C 1016.8 hPa SW 4.8 km/h 9.7 km/h 93% 0 mm
09:19 20.3 °C 19.2 °C 1017.2 hPa SW 8 km/h 14.5 km/h 93% 0 mm
09:25 20.4 °C 19.2 °C 1017.2 hPa SW 6.4 km/h 9.7 km/h 93% 0 mm
09:30 20.4 °C 19.3 °C 1017.2 hPa South 4.8 km/h 14.5 km/h 93% 0 mm
09:35 20.5 °C 19.3 °C 1017.2 hPa SSW 6.4 km/h 9.7 km/h 93% 0 mm
09:40 20.4 °C 19.3 °C 1017.5 hPa SSE 6.4 km/h 16.1 km/h 93% 0 mm
09:45 20.5 °C 19.3 °C 1017.5 hPa South 4.8 km/h 11.3 km/h 93% 0 mm
09:50 20.5 °C 19.3 °C 1017.5 hPa WSW 6.4 km/h 11.3 km/h 93% 0 mm
09:55 20.4 °C 19.3 °C 1017.5 hPa SW 6.4 km/h 12.9 km/h 93% 0 mm
10:00 20.4 °C 19.3 °C 1017.8 hPa SW 8 km/h 9.7 km/h 93% 0 mm
10:05 20.4 °C 19.3 °C 1017.5 hPa SSW 6.4 km/h 9.7 km/h 93% 0 mm
10:10 20.5 °C 19.3 °C 1017.5 hPa SSW 3.2 km/h 8 km/h 93% 0 mm
10:15 20.6 °C 19.4 °C 1017.5 hPa SE 4.8 km/h 8 km/h 93% 0 mm
10:20 20.7 °C 19.5 °C 1017.5 hPa SSE 8 km/h 8 km/h 93% 0 mm
10:24 20.7 °C 19.6 °C 1017.5 hPa SE 3.2 km/h 9.7 km/h 93% 0 mm
10:29 20.8 °C 19.5 °C 1017.5 hPa SW 4.8 km/h 9.7 km/h 92% 0 mm
10:34 20.9 °C 19.6 °C 1017.5 hPa SSW 3.2 km/h 8 km/h 92% 0 mm
10:39 20.9 °C 19.6 °C 1017.5 hPa SSW 8 km/h 9.7 km/h 92% 0 mm
10:44 20.9 °C 19.6 °C 1017.8 hPa SW 8 km/h 11.3 km/h 92% 0 mm
10:49 20.9 °C 19.6 °C 1017.5 hPa SW 8 km/h 12.9 km/h 92% 0 mm
10:54 20.9 °C 19.6 °C 1017.5 hPa WSW 4.8 km/h 9.7 km/h 92% 0 mm
10:59 20.9 °C 19.6 °C 1017.5 hPa SSW 8 km/h 9.7 km/h 92% 0 mm
11:04 21 °C 19.7 °C 1017.5 hPa SSW 3.2 km/h 9.7 km/h 92% 0 mm
11:09 21.2 °C 19.7 °C 1017.5 hPa SW 6.4 km/h 8 km/h 91% 0 mm
11:14 21.5 °C 20.2 °C 1017.5 hPa SSE 9.7 km/h 12.9 km/h 92% 0 mm
11:19 21.7 °C 20.1 °C 1017.5 hPa SE 4.8 km/h 14.5 km/h 91% 0 mm
11:24 21.9 °C 20.2 °C 1017.5 hPa SSW 4.8 km/h 9.7 km/h 90% 0 mm
11:30 22 °C 20.3 °C 1017.5 hPa SE 6.4 km/h 9.7 km/h 90% 0 mm
11:35 22.1 °C 20.4 °C 1017.5 hPa SSE 9.7 km/h 9.7 km/h 90% 0 mm
11:40 22.2 °C 20.3 °C 1017.5 hPa ESE 4.8 km/h 9.7 km/h 89% 0 mm
11:45 22.3 °C 20.4 °C 1017.5 hPa SSE 9.7 km/h 11.3 km/h 89% 0 mm
11:50 22.5 °C 20.6 °C 1017.2 hPa West 3.2 km/h 8 km/h 89% 0 mm
11:55 22.8 °C 20.7 °C 1017.2 hPa South 6.4 km/h 11.3 km/h 88% 0 mm
12:00 23 °C 20.9 °C 1017.2 hPa SE 4.8 km/h 4.8 km/h 88% 0 mm
12:05 23.4 °C 21.1 °C 1017.2 hPa SE 6.4 km/h 9.7 km/h 87% 0 mm
12:10 23.7 °C 21 °C 1016.8 hPa SSW 4.8 km/h 9.7 km/h 85% 0 mm
12:15 24 °C 21.3 °C 1016.8 hPa SE 4.8 km/h 11.3 km/h 85% 0 mm
12:20 24.2 °C 21.3 °C 1016.8 hPa SSE 3.2 km/h 6.4 km/h 84% 0 mm
12:25 24.2 °C 20.9 °C 1016.8 hPa WSW 6.4 km/h 11.3 km/h 82% 0 mm
12:30 24.2 °C 21.2 °C 1016.8 hPa West 4.8 km/h 9.7 km/h 83% 0 mm
12:35 24.3 °C 21.4 °C 1016.8 hPa SW 8 km/h 12.9 km/h 84% 0 mm
12:41 24.4 °C 21.2 °C 1016.8 hPa West 11.3 km/h 11.3 km/h 82% 0 mm
12:46 24.4 °C 21.4 °C 1016.8 hPa SW 6.4 km/h 9.7 km/h 83% 0 mm
12:51 24.4 °C 21.1 °C 1016.5 hPa WNW 9.7 km/h 11.3 km/h 82% 0 mm
12:56 24.4 °C 21.5 °C 1016.8 hPa WSW 11.3 km/h 12.9 km/h 84% 0 mm
13:01 24.7 °C 21.4 °C 1016.8 hPa WNW 3.2 km/h 4.8 km/h 82% 0 mm
13:06 24.8 °C 21.5 °C 1016.8 hPa Calm   6.4 km/h 82% 0 mm
13:12 25.1 °C 21.4 °C 1016.8 hPa NW 4.8 km/h 9.7 km/h 80% 0 mm
13:17 25 °C 21.5 °C 1016.8 hPa West 6.4 km/h 9.7 km/h 81% 0 mm
13:22 25 °C 21.5 °C 1017.2 hPa WNW 4.8 km/h 9.7 km/h 81% 0 mm
13:27 24.9 °C 21.6 °C 1016.8 hPa WNW 6.4 km/h 8 km/h 82% 0 mm
13:32 24.9 °C 21.4 °C 1016.8 hPa West 3.2 km/h 14.5 km/h 81% 0 mm
13:37 24.8 °C 21.6 °C 1016.8 hPa WNW 3.2 km/h 8 km/h 82% 0 mm
13:42 25 °C 21.5 °C 1016.8 hPa WSW 4.8 km/h 9.7 km/h 81% 0 mm
13:47 25.1 °C 21.4 °C 1016.8 hPa WSW 6.4 km/h 9.7 km/h 80% 0 mm
13:52 25.2 °C 21.5 °C 1016.8 hPa WNW 3.2 km/h 11.3 km/h 80% 0 mm
13:57 25.6 °C 21.8 °C 1016.8 hPa WSW 6.4 km/h 9.7 km/h 80% 0 mm
14:02 25.7 °C 21.4 °C 1016.8 hPa NNW 1.6 km/h 8 km/h 77% 0 mm
14:07 26.1 °C 21.9 °C 1016.8 hPa WSW 9.7 km/h 9.7 km/h 78% 0 mm
14:12 26.1 °C 21.7 °C 1016.8 hPa SW 8 km/h 11.3 km/h 77% 0 mm
14:17 26.1 °C 21.6 °C 1016.8 hPa SW 1.6 km/h 9.7 km/h 76% 0 mm
14:22 26.5 °C 21.7 °C 1016.8 hPa WSW 4.8 km/h 11.3 km/h 75% 0 mm
14:27 26.3 °C 21.6 °C 1016.8 hPa Calm   6.4 km/h 75% 0 mm
14:32 26.4 °C 21.6 °C 1016.5 hPa WSW 6.4 km/h 11.3 km/h 75% 0 mm
14:37 26.6 °C 22 °C 1016.5 hPa South 3.2 km/h 4.8 km/h 76% 0 mm
14:43 27.1 °C 22.5 °C 1016.5 hPa WNW 4.8 km/h 11.3 km/h 76% 0 mm
14:48 27 °C 22.4 °C 1016.5 hPa West 3.2 km/h 6.4 km/h 76% 0 mm
14:53 27.1 °C 22.5 °C 1016.5 hPa West 4.8 km/h 6.4 km/h 76% 0 mm
14:58 27.2 °C 21.7 °C 1016.5 hPa NE 4.8 km/h 8 km/h 72% 0 mm
15:03 27.4 °C 22.4 °C 1016.5 hPa West 4.8 km/h 9.7 km/h 74% 0 mm
15:09 27.6 °C 21.7 °C 1016.1 hPa SSW 4.8 km/h 8 km/h 70% 0 mm
15:14 27.6 °C 21.6 °C 1016.1 hPa SW 6.4 km/h 11.3 km/h 70% 0 mm
15:19 27.6 °C 21.9 °C 1015.8 hPa SW 8 km/h 9.7 km/h 71% 0 mm
15:24 27.7 °C 21.7 °C 1015.8 hPa SSE 8 km/h 11.3 km/h 70% 0 mm
15:29 27.8 °C 22.1 °C 1015.8 hPa SW 6.4 km/h 14.5 km/h 71% 0 mm
15:34 27.9 °C 22.2 °C 1015.5 hPa WNW 4.8 km/h 9.7 km/h 71% 0 mm
15:39 27.9 °C 22.2 °C 1015.5 hPa SSW 4.8 km/h 11.3 km/h 71% 0 mm
15:44 28 °C 21.6 °C 1015.5 hPa SW 8 km/h 14.5 km/h 68% 0 mm
15:50 27.8 °C 22.1 °C 1015.5 hPa SW 1.6 km/h 9.7 km/h 71% 0 mm
15:55 27.7 °C 21.7 °C 1015.5 hPa West 8 km/h 11.3 km/h 70% 0 mm
16:00 27.6 °C 21.9 °C 1015.5 hPa SSW 9.7 km/h 11.3 km/h 71% 0 mm
16:05 27.4 °C 21.7 °C 1015.1 hPa SSE 1.6 km/h 6.4 km/h 71% 0 mm
16:10 28 °C 22 °C 1015.1 hPa SW 4.8 km/h 14.5 km/h 70% 0 mm
16:15 27.9 °C 21.2 °C 1015.1 hPa SW 9.7 km/h 11.3 km/h 67% 0 mm
16:20 27.9 °C 21.4 °C 1015.1 hPa WSW 8 km/h 12.9 km/h 68% 0 mm
16:25 27.9 °C 21.5 °C 1014.8 hPa SW 4.8 km/h 11.3 km/h 68% 0 mm
16:30 27.9 °C 21 °C 1014.8 hPa West 6.4 km/h 12.9 km/h 66% 0 mm
16:35 28.1 °C 22.3 °C 1014.8 hPa SSE 6.4 km/h 11.3 km/h 71% 0 mm
16:40 28.4 °C 21.2 °C 1014.8 hPa West 3.2 km/h 12.9 km/h 65% 0 mm
16:41 28.4 °C 21.7 °C 1014.8 hPa SW 9.7 km/h 12.9 km/h 67% 0 mm
16:46 28.4 °C 20.9 °C 1014.4 hPa SW 4.8 km/h 12.9 km/h 64% 0 mm
16:51 28.2 °C 21.8 °C 1014.4 hPa SW 3.2 km/h 9.7 km/h 68% 0 mm
16:56 28.4 °C 21.9 °C 1014.4 hPa SW 11.3 km/h 14.5 km/h 68% 0 mm
17:01 28.2 °C 21 °C 1014.1 hPa West 4.8 km/h 11.3 km/h 65% 0 mm
17:06 28.1 °C 20.7 °C 1014.1 hPa West 11.3 km/h 12.9 km/h 64% 0 mm
17:11 28.3 °C 20.8 °C 1014.1 hPa WSW 9.7 km/h 14.5 km/h 64% 0 mm
17:16 28.2 °C 21 °C 1014.1 hPa WSW 9.7 km/h 12.9 km/h 65% 0 mm
17:21 28.2 °C 21 °C 1014.1 hPa SW 9.7 km/h 12.9 km/h 65% 0 mm
17:26 28.2 °C 21 °C 1014.1 hPa WNW 6.4 km/h 9.7 km/h 65% 0 mm
17:31 28.2 °C 21.3 °C 1014.1 hPa SSW 8 km/h 12.9 km/h 66% 0 mm
17:36 28.3 °C 21.4 °C 1014.1 hPa West 9.7 km/h 9.7 km/h 66% 0 mm
17:41 28.3 °C 20.8 °C 1014.1 hPa West 6.4 km/h 11.3 km/h 64% 0 mm
17:46 28.3 °C 21.6 °C 1014.1 hPa SW 6.4 km/h 6.4 km/h 67% 0 mm
17:51 28.3 °C 20.6 °C 1013.8 hPa WSW 8 km/h 12.9 km/h 63% 0 mm
17:56 28.3 °C 21.3 °C 1013.8 hPa SSW 8 km/h 12.9 km/h 66% 0 mm
18:02 28.3 °C 21.4 °C 1013.4 hPa West 4.8 km/h 14.5 km/h 66% 0 mm
18:07 28.4 °C 21.7 °C 1013.8 hPa SSW 8 km/h 12.9 km/h 67% 0 mm
18:12 28.4 °C 21.2 °C 1013.8 hPa SSE 8 km/h 11.3 km/h 65% 0 mm
18:17 28.4 °C 21.2 °C 1013.8 hPa South 4.8 km/h 11.3 km/h 65% 0 mm
18:18 28.4 °C 21 °C 1013.8 hPa South 3.2 km/h 8 km/h 64% 0 mm
18:23 28.4 °C 21.4 °C 1013.8 hPa WSW 3.2 km/h 8 km/h 66% 0 mm
18:28 28.3 °C 21.1 °C 1013.8 hPa West 4.8 km/h 9.7 km/h 65% 0 mm
18:33 28.4 °C 21.7 °C 1013.8 hPa WSW 6.4 km/h 8 km/h 67% 0 mm
18:38 28.4 °C 21.7 °C 1013.8 hPa West 6.4 km/h 8 km/h 67% 0 mm
18:43 28 °C 21.3 °C 1013.8 hPa West 1.6 km/h 9.7 km/h 67% 0 mm
18:48 28.1 °C 21.7 °C 1013.8 hPa WSW 4.8 km/h 6.4 km/h 68% 0 mm
18:53 28.3 °C 21.6 °C 1013.8 hPa SSW 3.2 km/h 9.7 km/h 67% 0 mm
18:58 28.3 °C 21.8 °C 1013.8 hPa SSW 9.7 km/h 9.7 km/h 68% 0 mm
19:03 28.2 °C 21.8 °C 1013.8 hPa WSW 4.8 km/h 8 km/h 68% 0 mm
19:08 28.2 °C 21.4 °C 1013.8 hPa SW 6.4 km/h 9.7 km/h 67% 0 mm
19:13 28 °C 21.8 °C 1013.4 hPa SW 6.4 km/h 8 km/h 69% 0 mm
19:18 27.8 °C 21.6 °C 1013.4 hPa SW 6.4 km/h 6.4 km/h 69% 0 mm
19:23 27.8 °C 21.6 °C 1013.4 hPa WSW 4.8 km/h 6.4 km/h 69% 0 mm
19:28 27.7 °C 21.8 °C 1013.4 hPa WSW 6.4 km/h 8 km/h 70% 0 mm
19:33 27.6 °C 21.6 °C 1013.1 hPa SW 8 km/h 11.3 km/h 70% 0 mm
19:38 27.3 °C 21.6 °C 1013.1 hPa SW 3.2 km/h 6.4 km/h 71% 0 mm
19:43 27.3 °C 21.6 °C 1013.1 hPa SW 4.8 km/h 8 km/h 71% 0 mm
19:48 27.1 °C 21.8 °C 1013.1 hPa SW 1.6 km/h 4.8 km/h 73% 0 mm
19:53 26.9 °C 21.7 °C 1013.1 hPa SSW 4.8 km/h 6.4 km/h 73% 0 mm
19:58 26.9 °C 21.7 °C 1013.1 hPa SSW 3.2 km/h 6.4 km/h 73% 0 mm
20:03 26.8 °C 21.6 °C 1013.1 hPa South 8 km/h 8 km/h 73% 0 mm
20:08 26.7 °C 21.5 °C 1013.1 hPa South 3.2 km/h 9.7 km/h 73% 0 mm
20:13 26.5 °C 21.5 °C 1013.1 hPa SSW 4.8 km/h 11.3 km/h 74% 0 mm
20:18 26.2 °C 21.4 °C 1013.1 hPa South 3.2 km/h 9.7 km/h 75% 0 mm
20:23 25.9 °C 21.3 °C 1013.1 hPa South 4.8 km/h 11.3 km/h 76% 0 mm
20:28 25.6 °C 21.3 °C 1013.1 hPa South 4.8 km/h 9.7 km/h 77% 0 mm
20:33 25.4 °C 21.3 °C 1013.1 hPa SSW 3.2 km/h 8 km/h 78% 0 mm
20:38 25.2 °C 21.1 °C 1013.1 hPa South 3.2 km/h 6.4 km/h 78% 0 mm
20:43 25 °C 21.1 °C 1013.1 hPa SSW 1.6 km/h 8 km/h 79% 0 mm
20:48 24.8 °C 21.1 °C 1013.1 hPa SW 4.8 km/h 8 km/h 80% 0 mm
20:53 24.6 °C 21.1 °C 1013.1 hPa SW 4.8 km/h 4.8 km/h 81% 0 mm
20:59 24.4 °C 21 °C 1013.1 hPa South 3.2 km/h 6.4 km/h 81% 0 mm
21:04 24.3 °C 21 °C 1013.1 hPa South 3.2 km/h 3.2 km/h 82% 0 mm
21:09 24.2 °C 20.9 °C 1013.1 hPa South 3.2 km/h 3.2 km/h 82% 0 mm
21:14 24.1 °C 20.8 °C 1013.1 hPa SSW 1.6 km/h 4.8 km/h 82% 0 mm
21:19 24 °C 20.9 °C 1013.1 hPa SE 1.6 km/h 3.2 km/h 83% 0 mm
21:24 23.8 °C 20.9 °C 1013.1 hPa SSE 1.6 km/h 3.2 km/h 84% 0 mm
21:29 23.5 °C 20.7 °C 1013.1 hPa SE 1.6 km/h 1.6 km/h 84% 0 mm
21:34 23.3 °C 20.9 °C 1013.4 hPa SE 3.2 km/h 4.8 km/h 86% 0 mm
21:39 23.3 °C 20.9 °C 1013.1 hPa ESE 4.8 km/h 6.4 km/h 86% 0 mm
21:44 23.3 °C 20.9 °C 1013.1 hPa SE 6.4 km/h 6.4 km/h 86% 0 mm
21:49 23.3 °C 20.8 °C 1013.4 hPa ESE 4.8 km/h 6.4 km/h 86% 0 mm
21:54 23.3 °C 20.8 °C 1013.4 hPa SE 3.2 km/h 8 km/h 86% 0 mm
21:59 23.2 °C 20.7 °C 1013.4 hPa SE 3.2 km/h 6.4 km/h 86% 0 mm
22:04 23.1 °C 20.6 °C 1013.4 hPa SE 3.2 km/h 4.8 km/h 86% 0 mm
22:09 22.8 °C 20.6 °C 1013.4 hPa SE 6.4 km/h 8 km/h 87% 0 mm
22:14 22.7 °C 20.4 °C 1013.4 hPa SE 4.8 km/h 6.4 km/h 87% 0 mm
22:19 22.6 °C 20.4 °C 1013.4 hPa SSE 4.8 km/h 6.4 km/h 88% 0 mm
22:24 22.4 °C 20.6 °C 1013.4 hPa South 3.2 km/h 4.8 km/h 89% 0 mm
22:29 22.4 °C 20.5 °C 1013.4 hPa SSE 3.2 km/h 6.4 km/h 89% 0 mm
22:34 22.3 °C 20.4 °C 1013.4 hPa SE 1.6 km/h 4.8 km/h 89% 0 mm
22:39 22.3 °C 20.6 °C 1013.4 hPa South 3.2 km/h 3.2 km/h 90% 0 mm
22:44 22.3 °C 20.6 °C 1013.4 hPa South 1.6 km/h 4.8 km/h 90% 0 mm
22:49 22.2 °C 20.5 °C 1013.4 hPa SSE 3.2 km/h 4.8 km/h 90% 0 mm
22:55 22.1 °C 20.3 °C 1013.4 hPa SE 1.6 km/h 3.2 km/h 90% 0 mm
23:00 21.9 °C 20.2 °C 1013.4 hPa SE 1.6 km/h 1.6 km/h 90% 0 mm
23:05 21.8 °C 20.2 °C 1013.4 hPa SE 1.6 km/h 1.6 km/h 91% 0 mm
23:10 21.7 °C 20.2 °C 1013.4 hPa Calm   3.2 km/h 91% 0 mm
23:15 21.7 °C 20.2 °C 1013.4 hPa South 1.6 km/h 3.2 km/h 91% 0 mm
23:20 21.7 °C 20.1 °C 1013.4 hPa SSE 1.6 km/h 1.6 km/h 91% 0 mm
23:23 21.6 °C 20.1 °C 1013.4 hPa SE 1.6 km/h 1.6 km/h 91% 0 mm
23:28 21.6 °C 20.1 °C 1013.4 hPa South 1.6 km/h 3.2 km/h 91% 0 mm
23:33 21.5 °C 20.2 °C 1013.4 hPa South 1.6 km/h 3.2 km/h 92% 0 mm
23:38 21.6 °C 20.2 °C 1013.4 hPa South 1.6 km/h 3.2 km/h 92% 0 mm
23:43 21.5 °C 20.2 °C 1013.4 hPa South 4.8 km/h 4.8 km/h 92% 0 mm
23:48 21.5 °C 20.2 °C 1013.4 hPa South 3.2 km/h 4.8 km/h 92% 0 mm
23:53 21.6 °C 20.2 °C 1013.4 hPa SSE 3.2 km/h 6.4 km/h 92% 0 mm
23:58 21.6 °C 20.1 °C 1013.4 hPa SW 6.4 km/h 6.4 km/h 91% 0 mm
Compliments of Weather Underground